クリステンセン彗星

422P/Christensen (2006)

English version
Home page
Updated on August 21, 2021

---------------------------------------------------------------------

・ プロフィール

符号 422P/2006 S4
発見日 2006年9月22日
発見光度 16.8等
発見者 E. J. Christensen (Catalina Sky Survey)

・ 軌道要素

Epoch 2006 May 25.0 TT = JDT 2453880.5                                          
T 2006 June 1.64109 TT                                  Rudenko                 
q   3.0679386            (2000.0)            P               Q                  
n   0.06331753     Peri.  305.70675     +0.84017844     +0.39067408             
a   6.2342862      Node    36.13865     +0.05839070     +0.62437048             
e   0.5078926      Incl.   39.62712     -0.53915742     +0.67641353             
P  15.6                                                                         
From 170 observations 2006 Sept. 22-2021 June 15, mean residual 1".0.           

・ 星図

・ 光度変化

        m1 = 10.5 + 5 logΔ + 10.0 log r

---------------------------------------------------------------------

軌道要素はM.P.E.C. 2021-M34に掲載されたものです。
星図は StellaNavigator Ver.2.0 for Windows (アストロアーツ 編著 / アスキー出版局刊) で作成したものです。
光度グラフはComet for Windowsで作成したものです。

---------------------------------------------------------------------

Copyright(C) Seiichi Yoshida (comet@aerith.net). All rights reserved.